ENRA Weather Reports


Display with metric or nautical units.
time (UTC)temp
F
wind
direction
speed
MPH
gust
MPH
rain 1hr
in
rain 24hr
in
rain mn
in
humidity
%
barometer
mb
20260508053307 35 130 3.0 0.0 0.00 0.00 0.00 93 1023.0
20260508050306 33 120 3.0 0.0 0.00 0.00 0.00 10 1023.0
20260508043306 33 0 0.0 0.0 0.00 0.00 0.00 10 1023.0
20260508040307 33 0 0.0 0.0 0.00 0.00 0.00 93 1023.0
20260508030306 32 150 3.0 0.0 0.00 0.00 0.00 10 1022.0
20260508023307 32 0 1.0 0.0 0.00 0.00 0.00 10 1022.0
20260508020307 32 140 2.0 0.0 0.00 0.00 0.00 10 1022.0
20260508013307 32 150 2.0 0.0 0.00 0.00 0.00 10 1022.0
20260508010306 33 60 2.0 0.0 0.00 0.00 0.00 10 1022.0
20260508003306 33 0 1.0 0.0 0.00 0.00 0.00 10 1021.0
20260508000306 33 0 0.0 0.0 0.00 0.00 0.00 10 1021.0
20260507233306 33 0 2.0 0.0 0.00 0.00 0.00 10 1021.0
20260507230306 33 0 2.0 0.0 0.00 0.00 0.00 10 1021.0
20260507223306 33 0 2.0 0.0 0.00 0.00 0.00 10 1020.0
20260507220306 33 140 3.0 0.0 0.00 0.00 0.00 10 1020.0
20260507213306 33 0 2.0 0.0 0.00 0.00 0.00 10 1020.0
20260507210307 33 140 3.0 0.0 0.00 0.00 0.00 10 1020.0
20260507203307 35 140 5.0 0.0 0.00 0.00 0.00 93 1019.0
20260507200305 35 120 3.0 0.0 0.00 0.00 0.00 93 1019.0
20260507193307 37 0 1.0 0.0 0.00 0.00 0.00 93 1019.0
20260507190307 37 330 3.0 0.0 0.00 0.00 0.00 86 1019.0
20260507183307 37 0 0.0 0.0 0.00 0.00 0.00 86 1018.0
20260507180310 37 0 1.0 0.0 0.00 0.00 0.00 93 1018.0
20260507173308 39 160 3.0 0.0 0.00 0.00 0.00 86 1018.0
20260507170308 39 200 3.0 0.0 0.00 0.00 0.00 86 1018.0
20260507163307 39 0 0.0 0.0 0.00 0.00 0.00 86 1017.0
20260507160308 39 230 3.0 0.0 0.00 0.00 0.00 80 1018.0
20260507153308 37 0 3.0 0.0 0.00 0.00 0.00 93 1017.0
20260507150308 42 220 6.0 20.0 0.00 0.00 0.00 65 1017.0
20260507143307 44 240 2.0 0.0 0.00 0.00 0.00 65 1016.0
20260507140308 44 340 3.0 0.0 0.00 0.00 0.00 65 1016.0
20260507133307 42 0 2.0 0.0 0.00 0.00 0.00 70 1016.0
20260507130307 42 0 2.0 0.0 0.00 0.00 0.00 70 1016.0
20260507123308 41 0 2.0 0.0 0.00 0.00 0.00 75 1016.0
20260507120307 37 350 8.0 0.0 0.00 0.00 0.00 86 1016.0
20260507113308 37 270 12.0 0.0 0.00 0.00 0.00 86 1016.0
20260507110307 44 240 6.0 0.0 0.00 0.00 0.00 56 1015.0
20260507103307 44 270 7.0 0.0 0.00 0.00 0.00 56 1015.0
20260507100308 44 360 5.0 0.0 0.00 0.00 0.00 52 1015.0
20260507093307 42 290 7.0 0.0 0.00 0.00 0.00 60 1015.0
20260507090308 42 0 3.0 0.0 0.00 0.00 0.00 65 1014.0
20260507083307 41 0 1.0 0.0 0.00 0.00 0.00 70 1014.0
20260507080308 41 0 0.0 0.0 0.00 0.00 0.00 70 1014.0
20260507073307 41 0 0.0 0.0 0.00 0.00 0.00 75 1014.0
20260507070307 39 0 0.0 0.0 0.00 0.00 0.00 86 1014.0
20260507063307 37 0 2.0 0.0 0.00 0.00 0.00 86 1014.0